METEOR 2-11 DEB

Satellite information

Favourite Embed

Satellite Type and Status

DEBRISIN ORBIT

Key statistics

Satellite METEOR 2-11 DEB at a glance.

Uptime

15137

Days in orbit

Revolutions

≈ 14.0

Per day

Orbit

LEO

Low Earth Orbit

Inclination

82.5

Latest

Satellite identification and parameters

Extended collection of information and parameters for METEOR 2-11 DEB.

Object identification

Identified? True

Debris? True

Object name: METEOR 2-11 DEB

International designator: 1984-072U

Object number (NORAD): 43309

Object ID (CCSDS): 43309

Country: COMMONWEALTH OF INDEPENDENT STATES (CIS)

Current information (Y/N): Y

RCS size: SMALL

Orbital parameters

Period: 102.954 minutes

Inclination: 82.5272 deg

SMA: 7276.51 km

Apoapsis: 919.14 km

Periapsis: 877.609 km

RAAN: 161.761 deg

Eccentricy: 0.00285373

Argument of periapsis: 160.0687 deg

Mean anomaly: 200.1603 deg

Mean motion: 13.98679126 rev/day

Mean motion (dot): 0.00004105 rev/day2

B* drag term: 0.0028377811 1/REarth

Two-line elements (TLE)

Creation date: Dec. 12, 2025, 10:14 a.m.

Reference frame: TEME

Reference center: EARTH

Epoch: Dec. 12, 2025, 5:12 a.m. UTC

TLE line 0: 0 METEOR 2-11 DEB

TLE line 1: 1 43309U 84072U 25346.21681547 .00004105 00000-0 28378-2 0 9994

TLE line 2: 2 43309 82.5272 161.7610 0028537 160.0687 200.1603 13.98679126537157

Live tracking on map

Real-time ground track for satellite METEOR 2-11 DEB.

In-orbit conjunctions

A list of the most updated potential collisions computed for object METEOR 2-11 DEB.

Target Orbit TCA Probability of collision Miss distance Type
DELTA 1 DEB SSO 2025-10-18 05:08:55 0.0001006543 161.0 (m) DEBRIS
CZ-4 DEB SSO 2025-04-12 03:27:24 0.0001641928 79.0 (m) DEBRIS
FENGYUN 1C DEB SSO 2024-09-25 08:08:05 0.0004776694 146.0 (m) DEBRIS

Associated space launch

Second generation soviet meteorological satellite

METEOR 2-11 DEB was lifted into orbit during the mission ‘Tsiklon-3 | Meteor-2 11’, on board a Tsiklon-3 space rocket.

The launch took place on July 5, 1984, 3:35 a.m. from 32/2.

For more information about the launch, click the button.

Launch to space Tsiklon-3 | Meteor-2 11
Tsiklon-3 | Meteor-2 11

Agency: N/A

Status: Launch Successful

Launch date: July 5, 1984, 3:35 a.m. UTC

Rocket: Tsiklon-3

Launch pad: 32/2

Location: Plesetsk Cosmodrome, Russian Federation

...

Latest news about this satellite

There are no fresh news available about this satellite. Check back as we update our databases every day.


Newsletter sign-up

Weekly statistics, charts and insights to help you stay on top of the space industry.